Tracking 19720 objects as of 25-Jun-2019
HD Live streaming from Space Station
objects crossing your sky now

ANIK E2

Track ANIK E2 now!
ANIK E2 is classified as:


NORAD ID: 21222
Int'l Code: 1991-026A
Perigee: 36,069.8 km
Apogee: 36,162.8 km
Inclination: 12.0 °
Period: 1,452.6 minutes
Semi major axis: 42487 km
RCS: 12.1056 m2 (large)
Launch date: April 4, 1991
Source: Canada (CA)
Launch site: FRENCH GUIANA (FRGUI)

Inclined orbit; Anik is Inuit for "Little Brother"; 24 C-band, 16 Ku-band transponders.
aabbcc
Your satellite tracking list
Your tracking list is empty




NASA's NSSDC Master Catalog

Two Line Element Set (TLE):
1 21222U 91026A   19175.34316935 -.00000155 +00000-0 +00000-0 0  9996
2 21222 012.0378 030.5355 0010949 342.4230 028.2391 00.99132168091794
Source of the keplerian elements: AFSPC